This is the latest recevied weather packets stored in our database for station/object HK4DAP-11. If no packets are shown the sender has not sent any weather packets the latest 10 day(s).
| Time | Temp. | Humidity | Pressure | Rain* | Wind** | Luminosity | Snow |
|---|---|---|---|---|---|---|---|
| 1787879187 | 26.11° C | 63% | 848.5 hPa | - | - | - | - |
| 1787878887 | 25.56° C | 63% | 848.4 hPa | - | - | - | - |
| 1787878587 | 26.11° C | 61% | 848.3 hPa | - | - | - | - |
| 1787878287 | 26.11° C | 60% | 848.3 hPa | - | - | - | - |
| 1787877987 | 26.11° C | 60% | 848.2 hPa | - | - | - | - |
| 1787877686 | 25.56° C | 62% | 848 hPa | - | - | - | - |
| 1787877386 | 25.56° C | 62% | 847.9 hPa | - | - | - | - |
| 1787877086 | 25.56° C | 62% | 847.8 hPa | - | - | - | - |
| 1787876787 | 25.56° C | 62% | 847.6 hPa | - | - | - | - |
| 1787876487 | 25.56° C | 62% | 847.4 hPa | - | - | - | - |
| 1787876186 | 25.56° C | 62% | 847.4 hPa | - | - | - | - |
| 1787875886 | 25.56° C | 62% | 847.4 hPa | - | - | - | - |
| 1787875585 | 25.56° C | 62% | 847.4 hPa | - | - | - | - |
| 1787875285 | 25.56° C | 62% | 847.4 hPa | - | - | - | - |
| 1787874985 | 25.56° C | 61% | 847.3 hPa | - | - | - | - |
| 1787874685 | 25.56° C | 61% | 847.4 hPa | - | - | - | - |
| 1787874385 | 25.56° C | 60% | 847.3 hPa | - | - | - | - |
| 1787874085 | 25.56° C | 60% | 847.2 hPa | - | - | - | - |
| 1787873785 | 26.11° C | 59% | 847.1 hPa | - | - | - | - |
| 1787873484 | 26.11° C | 58% | 847 hPa | - | - | - | - |
| 1787873184 | 26.11° C | 56% | 846.8 hPa | - | - | - | - |
| 1787872884 | 26.11° C | 55% | 846.9 hPa | - | - | - | - |
| 1787872584 | 26.11° C | 50% | 846.8 hPa | - | - | - | - |
| 1787872284 | 26.11° C | 51% | 846.7 hPa | - | - | - | - |
| 1787871984 | 26.11° C | 54% | 846.5 hPa | - | - | - | - |
* Rain since midnight (hover to see other rain measurements)
** Current wind speed in m/s (hover to see current wind gust speed)